Location: Casco Volunteer Fire Department
(44.5576°N, 87.6146°W)
Time: 04:26:05
(UTC+00:00)

BlueWalker 3 - Pass Details

Date: 22 March 2026
Orbit: 449 x 457 km, 53.2° (Epoch: 15 April)

Event Time Altitude Azimuth Distance (km) Brightness Sun altitude
Rises 00:44:17 0° 183° (S) 2,449 5.4 -7.9°
Reaches altitude 10° 00:47:32 10° 151° (SSE) 1,585 4.1 -8.5°
Maximum altitude 00:48:56 12° 128° (SE) 1,473 3.8 -8.7°
Enters shadow 00:49:41 11° 115° (ESE) 1,509 3.7 -8.9°
